QPF
0.00 0.00 0.00 0.00 0.00 0.00 0.00 0.00 0.00 0.00 0.01 0.02 0.02 0.02 0.02 0.01 0.01 0.04 0.12 0.16 0.07 0.02 0.02 0.03 0.14 0.37 0.45 0.42 0.28 0.29 0.44 0.45 0.56 0.82 1.25 1.61 1.79 1.65 1.18 0.74 0.68 0.51 0.45 0.63 0.64 0.24 1.22 0.71 0.86 0.28 0.54 0.63
0.00 0.00 0.00 0.00 0.00 0.00 0.00 0.00 0.00 0.00 0.00 0.02 0.02 0.02 0.04 0.04 0.09 0.15 0.21 0.23 0.13 0.06 0.05 0.04 0.02 0.11 0.32 0.30 0.37 0.34 0.28 0.31 0.43 0.38 0.53 0.78 0.85 0.94 1.18 1.33 1.45 1.40 1.03 0.66 0.42 0.29 0.23 0.31 0.87 0.58 0.69 0.38
0.00 0.00 0.00 0.00 0.00 0.00 0.00 0.00 0.00 0.00 0.00 0.01 0.01 0.01 0.00 0.03 0.07 0.06 0.06 0.07 0.06 0.03 0.02 0.01 0.02 0.01 0.07 0.18 0.25 0.32 0.29 0.30 0.25 0.34 0.29 0.29 0.47 0.67 0.61 0.57 0.52 0.49 0.51 0.42 0.38 0.39 0.48 0.32 0.37 0.18 0.25 0.29
0.00 0.00 0.00 0.00 0.00 0.00 0.00 0.00 0.00 0.00 0.00 0.00 0.01 0.02 0.01 0.00 0.02 0.02 0.02 0.02 0.04 0.03 0.03 0.02 0.02 0.01 0.00 0.01 0.11 0.20 0.34 0.37 0.35 0.42 0.43 0.39 0.35 0.46 0.48 0.57 0.44 0.34 0.29 0.25 0.30 0.34 0.30 0.54 0.63 0.40 0.24 0.22
0.00 0.00 0.00 0.00 0.00 0.00 0.00 0.00 0.00 0.00 0.00 0.00 0.03 0.04 0.01 0.00 0.01 0.04 0.05 0.04 0.04 0.03 0.02 0.02 0.02 0.02 0.01 0.01 0.02 0.04 0.15 0.28 0.48 0.61 0.51 0.54 0.51 0.59 0.42 0.42 0.48 0.36 0.34 0.21 0.22 0.28 0.26 0.26 0.31 0.47 0.52 0.26
0.00 0.00 0.00 0.00 0.00 0.00 0.00 0.00 0.00 0.00 0.00 0.00 0.00 0.01 0.02 0.02 0.00 0.00 0.02 0.03 0.04 0.04 0.02 0.03 0.02 0.01 0.00 0.01 0.01 0.03 0.07 0.11 0.26 0.48 0.60 0.61 0.70 0.60 0.44 0.51 0.45 0.39 0.39 0.33 0.25 0.21 0.20 0.27 0.28 0.20 0.21 0.28
0.00 0.00 0.00 0.00 0.00 0.00 0.00 0.00 0.00 0.00 0.00 0.00 0.01 0.04 0.05 0.03 0.01 0.01 0.01 0.03 0.02 0.03 0.02 0.02 0.01 0.01 0.01 0.01 0.01 0.03 0.03 0.06 0.34 0.53 0.34 0.34 0.56 0.74 0.84 0.64 0.57 0.38 0.40 0.50 0.37 0.35 0.31 0.44 0.27 0.22 0.21 0.18
0.00 0.00 0.00 0.00 0.00 0.00 0.00 0.00 0.00 0.00 0.00 0.00 0.00 0.01 0.01 0.01 0.00 0.00 0.01 0.01 0.02 0.02 0.02 0.03 0.02 0.02 0.02 0.02 0.03 0.04 0.04 0.07 0.16 0.29 0.29 0.33 0.41 0.44 0.54 0.61 0.51 0.49 0.42 0.35 0.39 0.38 0.33 0.28 0.30 0.23 0.20 0.19
0.00 0.00 0.00 0.00 0.00 0.00 0.00 0.00 0.00 0.00 0.00 0.00 0.00 0.00 0.00 0.00 0.00 0.00 0.00 0.00 0.00 0.01 0.02 0.02 0.03 0.04 0.05 0.06 0.06 0.07 0.08 0.08 0.09 0.14 0.21 0.24 0.23 0.24 0.25 0.26 0.27 0.33 0.33 0.32 0.31 0.34 0.34 0.34 0.28 0.19 0.20 0.18
0.00 0.00 0.00 0.00 0.00 0.00 0.00 0.00 0.00 0.00 0.00 0.00 0.00 0.00 0.00 0.00 0.00 0.00 0.00 0.00 0.00 0.01 0.02 0.02 0.02 0.04 0.05 0.06 0.07 0.07 0.08 0.08 0.09 0.07 0.09 0.10 0.13 0.12 0.10 0.09 0.09 0.10 0.17 0.20 0.22 0.20 0.19 0.23 0.24 0.19 0.21 0.15
0.00 0.00 0.00 0.00 0.00 0.00 0.00 0.00 0.00 0.00 0.00 0.00 0.00 0.00 0.00 0.00 0.00 0.00 0.00 0.00 0.00 0.00 0.00 0.00 0.01 0.05 0.06 0.06 0.07 0.09 0.11 0.10 0.11 0.11 0.10 0.08 0.06 0.07 0.05 0.05 0.05 0.05 0.06 0.08 0.13 0.14 0.13 0.13 0.13 0.13 0.17 0.14
0.00 0.00 0.00 0.00 0.00 0.00 0.00 0.00 0.00 0.00 0.00 0.00 0.00 0.00 0.00 0.00 0.00 0.00 0.00 0.00 0.00 0.00 0.00 0.00 0.02 0.07 0.09 0.08 0.10 0.11 0.10 0.11 0.10 0.10 0.10 0.07 0.06 0.04 0.02 0.01 0.01 0.01 0.01 0.02 0.03 0.05 0.06 0.07 0.07 0.06 0.05 0.05
0.00 0.00 0.00 0.00 0.00 0.00 0.00 0.00 0.00 0.00 0.00 0.00 0.00 0.00 0.00 0.00 0.00 0.00 0.00 0.00 0.00 0.00 0.00 0.00 0.01 0.07 0.15 0.20 0.15 0.12 0.10 0.12 0.12 0.13 0.13 0.12 0.10 0.09 0.09 0.06 0.03 0.01 0.00 0.00 0.00 0.00 0.01 0.03 0.04 0.04 0.04 0.03
0.00 0.00 0.00 0.00 0.00 0.00 0.00 0.00 0.00 0.00 0.00 0.00 0.00 0.00 0.00 0.00 0.00 0.00 0.00 0.00 0.00 0.00 0.00 0.00 0.00 0.03 0.09 0.14 0.13 0.10 0.07 0.06 0.05 0.05 0.05 0.07 0.09 0.08 0.06 0.05 0.04 0.02 0.01 0.01 0.00 0.00 0.00 0.00 0.01 0.03 0.04 0.03
0.00 0.00 0.00 0.00 0.00 0.00 0.00 0.00 0.00 0.00 0.00 0.00 0.00 0.00 0.00 0.00 0.00 0.00 0.00 0.00 0.00 0.00 0.01 0.01 0.01 0.01 0.03 0.08 0.12 0.11 0.09 0.08 0.06 0.05 0.04 0.04 0.04 0.04 0.03 0.02 0.02 0.02 0.02 0.02 0.01 0.01 0.01 0.01 0.00 0.01 0.02 0.04
0.00 0.00 0.00 0.00 0.00 0.00 0.00 0.00 0.00 0.00 0.00 0.00 0.00 0.00 0.00 0.00 0.00 0.00 0.00 0.01 0.01 0.01 0.01 0.01 0.02 0.02 0.02 0.03 0.04 0.07 0.08 0.09 0.08 0.07 0.05 0.05 0.04 0.04 0.03 0.02 0.01 0.00 0.00 0.00 0.00 0.01 0.01 0.01 0.11 0.01 0.01 0.02
0.00 0.00 0.00 0.00 0.00 0.00 0.00 0.00 0.00 0.00 0.00 0.00 0.00 0.00 0.00 0.00 0.00 0.00 0.00 0.00 0.02 0.03 0.02 0.02 0.02 0.02 0.03 0.03 0.04 0.06 0.07 0.06 0.05 0.05 0.05 0.04 0.04 0.05 0.05 0.04 0.03 0.01 0.00 0.00 0.00 0.00 0.00 0.00 0.00 0.00 0.02 0.03
0.00 0.00 0.00 0.00 0.00 0.00 0.00 0.00 0.00 0.00 0.00 0.00 0.00 0.00 0.00 0.00 0.00 0.00 0.00 0.00 0.00 0.00 0.01 0.02 0.02 0.02 0.03 0.03 0.04 0.04 0.05 0.06 0.07 0.07 0.06 0.05 0.05 0.05 0.05 0.05 0.04 0.05 0.02 0.01 0.00 0.00 0.00 0.00 0.00 0.00 0.00 0.01
0.00 0.00 0.00 0.00 0.00 0.00 0.00 0.00 0.00 0.00 0.00 0.00 0.00 0.00 0.00 0.00 0.00 0.00 0.00 0.00 0.00 0.00 0.00 0.01 0.02 0.02 0.02 0.02 0.05 0.07 0.07 0.06 0.06 0.05 0.05 0.05 0.06 0.10 0.10 0.09 0.04 0.04 0.03 0.04 0.03 0.03 0.01 0.00 0.00 0.00 0.00 0.00
0.00 0.00 0.00 0.00 0.00 0.00 0.00 0.00 0.00 0.00 0.00 0.00 0.00 0.00 0.00 0.00 0.00 0.00 0.00 0.00 0.00 0.00 0.00 0.00 0.01 0.02 0.02 0.02 0.02 0.04 0.07 0.08 0.07 0.08 0.07 0.07 0.07 0.06 0.09 0.12 0.11 0.09 0.06 0.03 0.02 0.01 0.01 0.00 0.00 0.00 0.00 0.00
0.00 0.00 0.00 0.00 0.00 0.00 0.00 0.00 0.00 0.00 0.00 0.00 0.00 0.00 0.00 0.00 0.00 0.00 0.00 0.00 0.00 0.00 0.00 0.00 0.00 0.01 0.02 0.03 0.03 0.02 0.03 0.05 0.07 0.07 0.09 0.12 0.11 0.07 0.07 0.09 0.10 0.09 0.08 0.06 0.04 0.03 0.02 0.01 0.00 0.00 0.00 0.00
0.00 0.00 0.00 0.00 0.00 0.00 0.00 0.00 0.00 0.00 0.00 0.00 0.00 0.00 0.00 0.00 0.00 0.00 0.00 0.00 0.00 0.00 0.00 0.00 0.00 0.00 0.01 0.02 0.04 0.04 0.04 0.05 0.07 0.09 0.08 0.09 0.12 0.14 0.11 0.09 0.10 0.12 0.13 0.10 0.06 0.05 0.05 0.04 0.01 0.00 0.00 0.00
0.00 0.00 0.00 0.00 0.00 0.00 0.00 0.00 0.00 0.00 0.00 0.00 0.00 0.00 0.00 0.00 0.00 0.00 0.00 0.00 0.00 0.00 0.00 0.00 0.00 0.00 0.00 0.00 0.02 0.04 0.05 0.06 0.08 0.10 0.11 0.11 0.10 0.11 0.14 0.14 0.12 0.11 0.12 0.15 0.12 0.07 0.05 0.06 0.04 0.02 0.01 0.00
0.00 0.00 0.00 0.00 0.00 0.00 0.00 0.00 0.00 0.00 0.00 0.00 0.00 0.00 0.00 0.00 0.00 0.00 0.00 0.00 0.00 0.00 0.00 0.00 0.00 0.00 0.00 0.00 0.01 0.02 0.03 0.05 0.06 0.08 0.11 0.12 0.14 0.15 0.15 0.14 0.14 0.14 0.15 0.14 0.13 0.11 0.07 0.06 0.06 0.04 0.02 0.01
0.00 0.00 0.00 0.00 0.00 0.00 0.00 0.00 0.00 0.00 0.00 0.00 0.00 0.00 0.00 0.00 0.00 0.00 0.00 0.00 0.00 0.00 0.00 0.00 0.00 0.00 0.00 0.00 0.00 0.01 0.02 0.03 0.05 0.06 0.06 0.07 0.09 0.12 0.15 0.18 0.17 0.16 0.16 0.16 0.15 0.13 0.11 0.08 0.06 0.05 0.03 0.02
0.00 0.00 0.00 0.00 0.00 0.00 0.00 0.00 0.00 0.00 0.00 0.00 0.00 0.00 0.00 0.00 0.00 0.00 0.00 0.00 0.00 0.00 0.00 0.00 0.00 0.00 0.00 0.00 0.00 0.00 0.01 0.02 0.02 0.03 0.04 0.06 0.07 0.07 0.08 0.13 0.18 0.25 0.17 0.16 0.19 0.19 0.17 0.12 0.08 0.07 0.06 0.06
0.00 0.00 0.00 0.00 0.00 0.00 0.00 0.00 0.00 0.00 0.00 0.00 0.00 0.00 0.00 0.00 0.00 0.00 0.00 0.00 0.00 0.00 0.00 0.00 0.00 0.00 0.00 0.00 0.00 0.00 0.00 0.01 0.01 0.01 0.03 0.04 0.06 0.07 0.07 0.07 0.12 0.18 0.24 0.23 0.19 0.20 0.21 0.17 0.15 0.11 0.09 0.08
0.00 0.00 0.00 0.00 0.00 0.00 0.00 0.00 0.00 0.00 0.00 0.00 0.00 0.00 0.00 0.00 0.00 0.00 0.00 0.00 0.00 0.00 0.00 0.00 0.00 0.00 0.00 0.00 0.00 0.00 0.00 0.00 0.01 0.01 0.01 0.02 0.04 0.05 0.06 0.07 0.09 0.12 0.16 0.24 0.25 0.23 0.25 0.23 0.19 0.17 0.17 0.18
0.00 0.00 0.00 0.00 0.00 0.00 0.00 0.00 0.00 0.00 0.00 0.00 0.00 0.00 0.00 0.00 0.00 0.00 0.00 0.00 0.00 0.00 0.00 0.00 0.00 0.00 0.00 0.00 0.00 0.00 0.00 0.00 0.00 0.00 0.02 0.02 0.03 0.04 0.05 0.06 0.08 0.09 0.12 0.15 0.22 0.28 0.25 0.22 0.19 0.21 0.19 0.13
0.00 0.00 0.00 0.00 0.00 0.00 0.00 0.00 0.00 0.00 0.00 0.00 0.00 0.00 0.00 0.00 0.00 0.00 0.00 0.00 0.00 0.00 0.00 0.00 0.00 0.00 0.00 0.00 0.00 0.00 0.00 0.00 0.00 0.00 0.00 0.01 0.02 0.03 0.04 0.06 0.06 0.07 0.10 0.13 0.16 0.19 0.27 0.32 0.30 0.23 0.18 0.14
0.00 0.00 0.00 0.00 0.00 0.00 0.00 0.00 0.00 0.00 0.00 0.00 0.00 0.00 0.00 0.00 0.00 0.00 0.00 0.00 0.00 0.00 0.00 0.00 0.00 0.00 0.00 0.00 0.00 0.00 0.00 0.00 0.00 0.00 0.00 0.00 0.01 0.02 0.03 0.05 0.05 0.05 0.07 0.09 0.13 0.15 0.18 0.22 0.25 0.27 0.24 0.24
MSLP
1023.41 1023.17 1022.97 1022.77 1022.57 1022.37 1022.13 1021.89 1021.57 1021.41 1021.17 1020.93 1020.69 1020.49 1020.13 1019.77 1019.37 1019.01 1018.61 1018.25 1017.85 1017.49 1017.17 1016.97 1016.61 1016.29 1016.01 1015.73 1015.37 1015.05 1014.77 1014.57 1014.37 1014.13 1013.81 1013.53 1013.17 1012.89 1012.49 1012.17 1012.89 1012.89 1012.73 1012.61 1012.73 1013.05 1013.09 1012.89 1012.97 1013.21 1013.49 1013.61
1023.69 1023.45 1023.29 1023.09 1022.89 1022.73 1022.49 1022.21 1021.93 1021.69 1021.53 1021.37 1021.17 1020.93 1020.57 1020.21 1019.81 1019.37 1019.01 1018.69 1018.41 1018.05 1017.73 1017.45 1017.05 1016.69 1016.25 1015.93 1015.65 1015.29 1014.97 1014.73 1014.49 1014.25 1014.05 1013.77 1013.41 1013.05 1012.97 1013.05 1012.97 1013.17 1013.53 1013.53 1013.41 1013.45 1013.49 1013.33 1013.21 1013.37 1013.65 1013.65
1023.97 1023.73 1023.57 1023.41 1023.21 1023.01 1022.81 1022.57 1022.29 1022.05 1021.85 1021.73 1021.57 1021.29 1020.97 1020.65 1020.21 1019.81 1019.33 1019.05 1018.85 1018.57 1018.25 1017.89 1017.37 1017.01 1016.65 1016.21 1015.81 1015.53 1015.25 1015.01 1014.69 1014.41 1014.21 1013.97 1013.73 1013.33 1013.21 1013.29 1013.49 1013.41 1013.65 1013.93 1013.89 1013.81 1013.77 1013.77 1013.73 1013.77 1013.73 1013.57
1024.17 1023.93 1023.77 1023.65 1023.41 1023.21 1023.01 1022.81 1022.61 1022.41 1022.17 1022.01 1021.81 1021.61 1021.29 1021.01 1020.69 1020.17 1019.73 1019.57 1019.33 1018.97 1018.57 1018.17 1017.85 1017.45 1016.93 1016.53 1016.17 1015.77 1015.45 1015.25 1014.93 1014.61 1014.33 1014.17 1013.93 1013.77 1013.65 1013.61 1013.73 1013.65 1013.73 1014.05 1014.21 1014.09 1013.89 1014.01 1013.85 1013.93 1014.09 1013.81
1024.41 1024.29 1024.09 1023.97 1023.69 1023.45 1023.21 1023.01 1022.85 1022.73 1022.53 1022.25 1022.09 1021.81 1021.57 1021.21 1020.85 1020.53 1020.21 1020.01 1019.89 1019.49 1019.05 1018.73 1018.29 1017.81 1017.29 1016.81 1016.53 1016.09 1015.65 1015.41 1015.05 1014.69 1014.45 1014.37 1014.29 1014.25 1014.09 1014.01 1013.93 1013.77 1013.85 1014.01 1014.13 1014.17 1014.09 1014.05 1014.09 1014.01 1014.05 1013.93
1024.77 1024.53 1024.29 1024.13 1023.85 1023.61 1023.37 1023.21 1023.05 1022.97 1022.89 1022.77 1022.53 1022.21 1021.89 1021.65 1021.29 1021.01 1020.77 1020.53 1020.17 1019.81 1019.57 1019.13 1018.61 1018.13 1017.69 1017.33 1016.89 1016.45 1016.05 1015.65 1015.25 1014.89 1014.77 1014.61 1014.61 1014.65 1014.65 1014.53 1014.45 1014.21 1014.01 1014.21 1014.29 1014.29 1014.21 1014.29 1014.21 1014.05 1014.05 1014.09
1024.89 1024.65 1024.41 1024.17 1024.01 1023.85 1023.65 1023.53 1023.45 1023.37 1023.25 1023.13 1023.01 1022.77 1022.49 1022.13 1021.81 1021.53 1021.25 1021.01 1020.77 1020.41 1020.05 1019.61 1019.05 1018.65 1018.29 1017.85 1017.41 1017.09 1016.65 1016.13 1015.85 1015.49 1015.17 1014.97 1014.89 1014.89 1014.77 1014.85 1014.89 1014.69 1014.53 1014.45 1014.49 1014.53 1014.41 1014.49 1014.37 1014.17 1014.25 1014.33
1024.93 1024.73 1024.53 1024.37 1024.25 1024.13 1024.01 1023.85 1023.73 1023.65 1023.53 1023.45 1023.29 1023.13 1022.89 1022.57 1022.25 1021.97 1021.69 1021.33 1020.93 1020.61 1020.25 1019.77 1019.45 1019.17 1018.77 1018.33 1017.97 1017.61 1017.21 1016.81 1016.37 1016.05 1015.73 1015.45 1015.25 1015.09 1015.09 1015.13 1015.09 1014.93 1014.81 1014.65 1014.61 1014.65 1014.61 1014.69 1014.61 1014.53 1014.53 1014.57
1025.13 1024.97 1024.85 1024.73 1024.61 1024.49 1024.37 1024.21 1024.01 1023.89 1023.73 1023.61 1023.45 1023.33 1023.13 1022.89 1022.61 1022.33 1021.97 1021.77 1021.49 1021.09 1020.57 1020.13 1019.85 1019.57 1019.33 1019.13 1018.73 1018.29 1017.85 1017.61 1017.09 1016.61 1016.21 1015.89 1015.65 1015.49 1015.33 1015.25 1015.21 1015.09 1014.93 1014.97 1014.89 1014.85 1014.81 1014.69 1014.65 1014.69 1014.69 1014.73
1025.49 1025.29 1025.17 1025.01 1024.89 1024.85 1024.69 1024.53 1024.33 1024.17 1023.97 1023.77 1023.65 1023.57 1023.41 1023.13 1022.85 1022.61 1022.37 1022.13 1021.89 1021.57 1021.17 1020.77 1020.45 1020.29 1020.17 1020.01 1019.61 1019.09 1018.57 1018.21 1017.89 1017.37 1016.89 1016.45 1016.01 1015.81 1015.57 1015.37 1015.29 1015.25 1015.21 1015.17 1015.17 1015.13 1015.01 1014.93 1014.73 1014.65 1014.73 1014.69
1025.81 1025.69 1025.61 1025.45 1025.25 1025.17 1024.97 1024.81 1024.61 1024.45 1024.25 1024.13 1023.97 1023.85 1023.65 1023.33 1023.17 1023.05 1022.85 1022.61 1022.37 1022.17 1021.85 1021.61 1021.33 1021.01 1020.85 1020.69 1020.33 1019.77 1019.25 1018.85 1018.49 1018.05 1017.53 1017.05 1016.65 1016.21 1015.85 1015.53 1015.37 1015.29 1015.29 1015.33 1015.33 1015.33 1015.21 1015.13 1015.01 1014.85 1014.81 1014.81
1026.09 1026.01 1025.89 1025.73 1025.57 1025.53 1025.37 1025.17 1024.97 1024.77 1024.61 1024.45 1024.25 1024.17 1024.09 1023.89 1023.69 1023.45 1023.25 1023.17 1022.97 1022.73 1022.45 1022.21 1021.97 1021.61 1021.29 1021.13 1020.89 1020.45 1019.93 1019.57 1019.05 1018.53 1018.13 1017.73 1017.21 1016.73 1016.33 1015.93 1015.61 1015.49 1015.45 1015.37 1015.33 1015.29 1015.29 1015.25 1015.17 1015.01 1014.89 1014.81
1026.25 1026.17 1026.09 1025.93 1025.77 1025.73 1025.57 1025.41 1025.25 1025.13 1024.93 1024.77 1024.61 1024.49 1024.41 1024.21 1023.97 1023.77 1023.65 1023.53 1023.45 1023.29 1022.97 1022.69 1022.41 1022.05 1021.81 1021.57 1021.29 1020.85 1020.49 1020.21 1019.69 1019.05 1018.61 1018.29 1017.89 1017.53 1016.97 1016.37 1015.89 1015.65 1015.53 1015.45 1015.37 1015.37 1015.33 1015.25 1015.17 1015.05 1014.89 1014.77
1026.45 1026.33 1026.25 1026.13 1025.97 1025.93 1025.81 1025.61 1025.45 1025.37 1025.25 1025.13 1024.97 1024.85 1024.73 1024.65 1024.41 1024.21 1024.05 1023.89 1023.73 1023.61 1023.37 1023.13 1022.81 1022.53 1022.25 1022.05 1021.77 1021.33 1020.97 1020.61 1020.25 1019.73 1019.13 1018.73 1018.33 1017.85 1017.57 1017.21 1016.49 1015.89 1015.57 1015.45 1015.37 1015.33 1015.21 1015.13 1015.05 1014.97 1014.89 1014.81
1026.57 1026.45 1026.37 1026.25 1026.17 1026.05 1026.01 1025.77 1025.61 1025.53 1025.49 1025.41 1025.29 1025.21 1025.13 1024.97 1024.77 1024.53 1024.37 1024.21 1024.01 1023.85 1023.69 1023.49 1023.29 1023.01 1022.69 1022.41 1022.13 1021.81 1021.45 1021.09 1020.69 1020.29 1019.85 1019.41 1018.93 1018.37 1017.77 1017.53 1017.21 1016.53 1015.85 1015.45 1015.29 1015.21 1015.13 1015.01 1014.89 1014.85 1014.77 1014.73
1026.69 1026.57 1026.53 1026.41 1026.33 1026.21 1026.13 1025.93 1025.81 1025.69 1025.61 1025.57 1025.49 1025.45 1025.37 1025.29 1025.05 1024.85 1024.73 1024.53 1024.29 1024.09 1023.85 1023.69 1023.61 1023.41 1023.13 1022.89 1022.61 1022.25 1021.81 1021.37 1021.05 1020.65 1020.13 1019.69 1019.37 1018.89 1018.29 1017.69 1017.41 1017.17 1016.73 1015.97 1015.49 1015.13 1015.01 1014.89 1014.77 1014.65 1014.61 1014.61
1026.85 1026.69 1026.57 1026.49 1026.49 1026.41 1026.29 1026.09 1025.97 1025.85 1025.77 1025.69 1025.65 1025.65 1025.61 1025.53 1025.33 1025.13 1025.05 1024.85 1024.65 1024.37 1024.13 1023.93 1023.81 1023.65 1023.49 1023.33 1023.05 1022.65 1022.17 1021.73 1021.25 1020.85 1020.37 1019.81 1019.53 1019.13 1018.61 1018.01 1017.65 1017.41 1017.13 1016.81 1016.49 1015.97 1015.25 1014.89 1014.73 1014.65 1014.57 1014.49
1026.85 1026.69 1026.57 1026.49 1026.45 1026.45 1026.41 1026.25 1026.13 1026.05 1025.97 1025.89 1025.81 1025.81 1025.81 1025.77 1025.61 1025.41 1025.33 1025.13 1024.89 1024.61 1024.33 1024.13 1023.97 1023.85 1023.69 1023.53 1023.29 1022.93 1022.45 1022.09 1021.69 1021.29 1020.81 1020.29 1019.77 1019.49 1019.05 1018.57 1018.17 1017.81 1017.53 1017.21 1016.85 1016.61 1016.33 1015.61 1015.01 1014.77 1014.61 1014.45
1026.93 1026.73 1026.61 1026.45 1026.41 1026.37 1026.33 1026.29 1026.21 1026.13 1026.05 1026.01 1025.97 1025.97 1025.97 1025.93 1025.81 1025.65 1025.57 1025.37 1025.17 1024.85 1024.61 1024.37 1024.13 1023.97 1023.89 1023.73 1023.53 1023.17 1022.81 1022.49 1022.09 1021.77 1021.33 1020.89 1020.37 1020.01 1019.65 1019.13 1018.49 1018.25 1018.05 1017.65 1017.29 1016.93 1016.65 1016.41 1015.77 1015.17 1014.77 1014.57
1027.01 1026.81 1026.69 1026.57 1026.45 1026.29 1026.25 1026.21 1026.21 1026.17 1026.09 1026.05 1026.01 1026.05 1026.13 1026.05 1025.93 1025.81 1025.77 1025.61 1025.37 1025.17 1024.85 1024.61 1024.37 1024.17 1024.01 1023.85 1023.69 1023.45 1023.13 1022.85 1022.53 1022.13 1021.77 1021.33 1020.93 1020.37 1019.85 1019.33 1018.73 1018.45 1018.33 1017.93 1017.57 1017.17 1016.89 1016.65 1016.37 1015.93 1015.33 1014.81
1027.01 1026.85 1026.73 1026.65 1026.57 1026.37 1026.21 1026.13 1026.09 1026.09 1026.05 1026.01 1026.01 1026.05 1026.17 1026.13 1026.01 1025.93 1025.85 1025.73 1025.57 1025.37 1025.13 1024.85 1024.57 1024.33 1024.09 1023.93 1023.77 1023.61 1023.41 1023.29 1023.01 1022.69 1022.25 1021.69 1021.21 1020.89 1020.33 1019.85 1019.45 1018.85 1018.49 1018.13 1017.61 1017.29 1017.09 1016.81 1016.69 1016.29 1015.81 1015.45
1027.01 1026.85 1026.73 1026.65 1026.61 1026.45 1026.29 1026.13 1026.01 1025.97 1025.93 1025.93 1025.97 1026.01 1026.09 1026.09 1026.01 1025.93 1025.89 1025.77 1025.69 1025.53 1025.33 1025.13 1024.85 1024.53 1024.25 1024.01 1023.85 1023.69 1023.61 1023.53 1023.33 1023.09 1022.73 1022.29 1021.61 1021.09 1020.69 1020.09 1019.65 1019.09 1018.65 1018.25 1017.69 1017.29 1017.09 1016.89 1016.65 1016.41 1016.21 1015.81
1027.01 1026.85 1026.77 1026.65 1026.57 1026.49 1026.33 1026.21 1026.09 1025.93 1025.85 1025.85 1025.85 1025.93 1025.93 1025.97 1025.93 1025.89 1025.85 1025.77 1025.69 1025.61 1025.45 1025.29 1025.05 1024.81 1024.45 1024.17 1024.01 1023.85 1023.73 1023.57 1023.41 1023.21 1022.93 1022.69 1022.09 1021.37 1020.93 1020.45 1020.09 1019.73 1019.25 1018.57 1017.85 1017.37 1017.01 1016.81 1016.57 1016.33 1016.13 1016.01
1026.97 1026.85 1026.77 1026.73 1026.61 1026.53 1026.45 1026.29 1026.17 1026.01 1025.85 1025.77 1025.81 1025.81 1025.77 1025.77 1025.77 1025.77 1025.73 1025.69 1025.65 1025.57 1025.45 1025.33 1025.17 1024.97 1024.69 1024.41 1024.17 1024.01 1023.85 1023.65 1023.57 1023.45 1023.25 1022.89 1022.41 1021.73 1021.01 1020.45 1020.21 1019.89 1019.25 1018.69 1017.89 1017.13 1016.77 1016.61 1016.41 1016.17 1015.97 1015.81
1026.93 1026.93 1026.85 1026.77 1026.69 1026.57 1026.41 1026.25 1026.05 1025.97 1025.77 1025.65 1025.65 1025.61 1025.61 1025.57 1025.57 1025.57 1025.61 1025.53 1025.49 1025.53 1025.41 1025.33 1025.21 1025.05 1024.85 1024.61 1024.41 1024.17 1024.01 1023.81 1023.69 1023.61 1023.61 1023.29 1022.73 1022.17 1021.57 1020.77 1020.25 1020.01 1019.45 1018.85 1017.85 1017.01 1016.73 1016.45 1016.13 1015.81 1015.65 1015.57
1026.85 1026.81 1026.81 1026.81 1026.69 1026.49 1026.33 1026.17 1026.05 1025.85 1025.65 1025.49 1025.33 1025.33 1025.33 1025.33 1025.33 1025.37 1025.41 1025.41 1025.37 1025.37 1025.37 1025.29 1025.17 1025.05 1024.93 1024.73 1024.57 1024.29 1024.05 1023.85 1023.77 1023.69 1023.69 1023.49 1022.97 1022.45 1022.17 1021.45 1020.69 1020.41 1019.73 1019.21 1019.25 1018.33 1017.05 1016.37 1015.89 1015.69 1015.81 1015.85
1026.73 1026.69 1026.69 1026.65 1026.53 1026.37 1026.21 1026.05 1025.93 1025.81 1025.61 1025.37 1025.17 1025.05 1025.05 1025.01 1025.05 1025.13 1025.21 1025.21 1025.21 1025.21 1025.21 1025.21 1025.17 1025.05 1024.89 1024.81 1024.57 1024.41 1024.13 1023.93 1023.85 1023.81 1023.85 1023.77 1023.65 1022.89 1022.41 1021.97 1021.13 1020.89 1020.73 1020.65 1019.69 1018.65 1017.77 1016.89 1016.41 1015.65 1015.81 1015.93
1026.49 1026.49 1026.49 1026.41 1026.29 1026.13 1026.01 1025.93 1025.77 1025.65 1025.49 1025.29 1025.05 1024.93 1024.85 1024.81 1024.81 1024.85 1024.93 1024.93 1025.01 1025.05 1025.05 1025.05 1025.09 1025.01 1024.93 1024.77 1024.57 1024.41 1024.21 1024.01 1023.97 1023.89 1023.89 1023.85 1023.69 1023.49 1023.13 1022.41 1021.65 1021.13 1021.05 1020.77 1020.21 1019.49 1018.77 1017.85 1017.69 1016.57 1016.69 1017.13
1026.29 1026.37 1026.33 1026.17 1026.05 1025.97 1025.89 1025.77 1025.73 1025.61 1025.45 1025.25 1025.05 1024.93 1024.81 1024.69 1024.65 1024.61 1024.61 1024.69 1024.73 1024.77 1024.81 1024.85 1024.85 1024.89 1024.85 1024.77 1024.53 1024.29 1024.13 1024.01 1023.97 1024.01 1023.93 1023.93 1023.81 1023.73 1023.61 1023.09 1022.49 1021.53 1021.29 1021.09 1020.85 1020.85 1019.77 1018.69 1017.69 1017.77 1018.21 1017.61
1026.13 1026.17 1026.21 1026.13 1026.13 1026.17 1026.09 1026.05 1025.89 1025.73 1025.49 1025.25 1025.13 1024.93 1024.65 1024.57 1024.49 1024.45 1024.41 1024.41 1024.45 1024.49 1024.53 1024.61 1024.65 1024.69 1024.69 1024.65 1024.45 1024.25 1024.01 1023.85 1023.85 1023.93 1023.89 1023.85 1023.77 1023.73 1023.53 1023.49 1022.85 1022.13 1021.53 1021.33 1021.09 1021.01 1020.85 1020.41 1020.09 1019.25 1018.81 1018.05
1025.93 1025.97 1025.93 1025.93 1025.93 1025.97 1025.97 1025.89 1025.61 1025.37 1025.21 1025.13 1024.97 1024.81 1024.65 1024.49 1024.33 1024.21 1024.17 1024.09 1024.13 1024.13 1024.21 1024.33 1024.45 1024.49 1024.45 1024.41 1024.29 1024.09 1023.89 1023.77 1023.69 1023.73 1023.77 1023.69 1023.73 1023.65 1023.49 1023.41 1023.29 1022.61 1022.25 1021.61 1021.17 1021.01 1020.85 1020.41 1020.21 1020.01 1019.49 1019.29
Thickness
5558 5559 5561 5562 5563 5564 5565 5567 5568 5570 5571 5573 5574 5575 5576 5578 5581 5583 5585 5587 5590 5592 5595 5598 5601 5604 5607 5610 5612 5615 5617 5619 5620 5623 5626 5629 5633 5635 5639 5641 5637 5636 5636 5638 5639 5637 5638 5642 5644 5643 5644 5643
5552 5553 5554 5555 5556 5557 5557 5560 5561 5563 5564 5565 5566 5567 5569 5570 5573 5576 5578 5580 5581 5584 5586 5590 5593 5596 5599 5602 5604 5607 5610 5612 5614 5616 5619 5621 5626 5628 5630 5630 5629 5628 5625 5624 5627 5629 5631 5634 5636 5637 5636 5637
5546 5547 5547 5548 5549 5550 5551 5552 5553 5555 5556 5557 5559 5560 5562 5563 5565 5569 5572 5573 5574 5576 5578 5582 5586 5589 5591 5594 5598 5600 5602 5605 5607 5609 5611 5614 5618 5620 5622 5622 5622 5622 5619 5616 5618 5621 5624 5626 5628 5629 5629 5631
5539 5540 5540 5541 5542 5543 5544 5545 5546 5547 5548 5550 5551 5553 5555 5557 5558 5561 5564 5565 5565 5568 5570 5574 5577 5580 5583 5586 5590 5593 5596 5598 5600 5603 5605 5607 5610 5612 5614 5615 5616 5618 5616 5611 5612 5615 5618 5620 5621 5622 5623 5626
5532 5532 5533 5534 5535 5537 5537 5539 5540 5540 5541 5543 5544 5546 5548 5550 5552 5553 5555 5556 5557 5560 5563 5565 5568 5571 5575 5578 5582 5586 5590 5592 5594 5597 5598 5599 5600 5602 5605 5607 5610 5613 5612 5609 5608 5609 5612 5614 5614 5616 5618 5621
5526 5526 5527 5528 5529 5530 5532 5533 5533 5533 5534 5534 5535 5537 5539 5541 5544 5545 5546 5547 5549 5551 5554 5556 5560 5564 5566 5569 5573 5577 5582 5585 5587 5590 5591 5592 5592 5593 5595 5598 5601 5604 5605 5606 5604 5603 5606 5608 5609 5610 5611 5614
5520 5520 5522 5522 5523 5524 5525 5525 5525 5526 5525 5526 5527 5527 5530 5531 5533 5536 5538 5539 5540 5542 5544 5548 5552 5555 5557 5560 5563 5566 5571 5575 5578 5580 5582 5584 5584 5586 5587 5588 5591 5593 5596 5599 5599 5598 5599 5601 5603 5604 5604 5604
5514 5514 5515 5515 5516 5516 5516 5517 5517 5518 5518 5518 5519 5519 5521 5522 5524 5526 5529 5531 5532 5534 5536 5541 5544 5545 5548 5551 5553 5556 5559 5563 5567 5570 5573 5576 5577 5578 5579 5580 5582 5584 5587 5591 5593 5592 5592 5594 5596 5596 5594 5594
5506 5507 5507 5507 5507 5507 5507 5508 5509 5509 5510 5511 5511 5512 5512 5513 5515 5517 5519 5522 5524 5526 5529 5532 5534 5536 5538 5539 5542 5545 5549 5551 5554 5558 5563 5566 5569 5570 5571 5572 5574 5577 5579 5581 5583 5585 5587 5589 5591 5591 5589 5588
5497 5497 5498 5498 5498 5498 5498 5498 5500 5500 5501 5503 5503 5503 5504 5505 5506 5508 5510 5512 5514 5516 5519 5522 5523 5525 5526 5527 5529 5533 5537 5540 5543 5547 5550 5555 5559 5562 5564 5566 5567 5569 5571 5573 5573 5575 5578 5580 5583 5587 5586 5585
5488 5488 5488 5488 5488 5488 5489 5489 5490 5491 5492 5493 5494 5495 5495 5496 5497 5498 5499 5500 5503 5504 5507 5509 5511 5513 5514 5515 5518 5522 5526 5529 5532 5536 5539 5543 5547 5552 5555 5559 5561 5561 5562 5564 5565 5566 5570 5571 5574 5578 5581 5581
5479 5479 5478 5478 5479 5479 5479 5480 5481 5482 5483 5483 5484 5485 5485 5486 5487 5488 5488 5489 5490 5492 5495 5497 5499 5502 5504 5505 5507 5510 5514 5518 5522 5525 5529 5533 5536 5541 5545 5549 5552 5553 5554 5555 5557 5558 5562 5564 5566 5568 5571 5574
5470 5470 5470 5470 5470 5470 5470 5471 5471 5472 5473 5474 5474 5475 5475 5476 5477 5478 5478 5479 5479 5480 5483 5485 5487 5491 5493 5495 5497 5500 5503 5507 5510 5514 5518 5522 5526 5530 5533 5538 5543 5545 5546 5547 5549 5551 5554 5557 5559 5561 5563 5566
5462 5462 5461 5461 5461 5460 5460 5461 5461 5461 5462 5463 5464 5464 5464 5464 5466 5467 5467 5468 5469 5470 5472 5474 5475 5479 5482 5484 5486 5489 5492 5495 5499 5503 5507 5510 5515 5519 5523 5527 5531 5535 5539 5540 5542 5545 5548 5551 5554 5555 5556 5559
5453 5453 5452 5452 5452 5451 5451 5452 5452 5452 5451 5452 5452 5453 5453 5454 5455 5455 5456 5456 5458 5459 5460 5462 5464 5466 5469 5472 5475 5478 5481 5484 5487 5491 5495 5499 5503 5508 5514 5517 5519 5524 5529 5533 5536 5538 5542 5545 5548 5550 5551 5553
5444 5444 5443 5442 5441 5441 5440 5441 5442 5442 5441 5441 5441 5441 5441 5442 5443 5444 5445 5446 5447 5448 5449 5451 5452 5454 5456 5459 5462 5466 5470 5472 5476 5480 5485 5488 5492 5497 5502 5507 5510 5513 5518 5523 5526 5530 5535 5539 5542 5545 5547 5548
5434 5434 5433 5432 5430 5430 5430 5430 5431 5431 5431 5431 5430 5429 5430 5430 5431 5432 5433 5435 5436 5437 5438 5439 5440 5442 5444 5446 5450 5453 5458 5462 5466 5469 5474 5479 5482 5487 5491 5497 5500 5503 5507 5510 5513 5518 5523 5530 5535 5537 5540 5542
5425 5424 5424 5423 5421 5420 5419 5419 5419 5420 5419 5419 5419 5418 5417 5418 5419 5419 5420 5422 5423 5425 5428 5429 5429 5430 5432 5434 5437 5441 5445 5450 5454 5457 5462 5467 5471 5475 5479 5484 5489 5492 5495 5499 5502 5505 5510 5517 5523 5528 5532 5535
5415 5414 5414 5413 5412 5411 5410 5409 5408 5408 5407 5407 5407 5406 5405 5406 5406 5407 5408 5409 5411 5413 5415 5418 5419 5420 5420 5422 5424 5428 5432 5436 5441 5445 5448 5453 5458 5462 5466 5472 5478 5481 5483 5488 5491 5494 5498 5503 5509 5516 5523 5527
5405 5404 5404 5402 5402 5402 5401 5400 5399 5397 5397 5396 5396 5395 5394 5393 5394 5395 5395 5397 5398 5401 5403 5405 5407 5409 5410 5410 5412 5414 5418 5422 5426 5431 5435 5440 5444 5449 5453 5459 5465 5469 5472 5477 5481 5484 5489 5492 5496 5503 5510 5516
5396 5395 5395 5393 5392 5392 5391 5391 5391 5389 5388 5387 5387 5385 5384 5383 5383 5383 5383 5384 5385 5387 5389 5392 5394 5396 5399 5400 5401 5402 5404 5407 5411 5416 5421 5426 5431 5436 5441 5445 5451 5457 5462 5467 5472 5475 5479 5483 5486 5492 5498 5504
5388 5387 5387 5386 5384 5383 5383 5383 5383 5383 5381 5380 5379 5377 5375 5374 5373 5373 5373 5373 5373 5375 5376 5378 5381 5383 5386 5388 5390 5391 5392 5394 5397 5400 5405 5411 5417 5422 5428 5432 5438 5444 5451 5457 5463 5467 5470 5474 5478 5483 5488 5493
5381 5381 5380 5379 5378 5377 5376 5375 5375 5374 5374 5373 5372 5370 5368 5366 5365 5364 5363 5363 5363 5363 5363 5364 5367 5369 5372 5375 5377 5379 5381 5382 5384 5387 5391 5396 5403 5409 5414 5420 5425 5431 5438 5444 5452 5458 5462 5465 5469 5474 5479 5483
5375 5374 5374 5373 5372 5371 5369 5369 5368 5367 5366 5366 5365 5363 5361 5358 5357 5355 5354 5354 5353 5352 5353 5353 5353 5355 5358 5361 5364 5365 5367 5370 5371 5373 5376 5380 5387 5395 5401 5407 5413 5418 5425 5432 5441 5450 5454 5457 5462 5467 5471 5476
5370 5368 5368 5366 5365 5364 5363 5362 5361 5360 5359 5358 5357 5356 5354 5351 5350 5347 5344 5343 5342 5341 5341 5341 5342 5342 5344 5346 5349 5351 5353 5356 5358 5360 5362 5366 5371 5378 5385 5394 5400 5405 5412 5419 5428 5439 5446 5450 5455 5459 5462 5466
5365 5363 5361 5360 5359 5358 5356 5355 5354 5353 5351 5351 5350 5349 5347 5345 5342 5340 5336 5334 5332 5331 5329 5329 5329 5330 5331 5332 5334 5336 5339 5341 5344 5346 5349 5352 5357 5362 5368 5377 5385 5390 5397 5402 5409 5420 5431 5440 5446 5450 5452 5454
5359 5358 5356 5354 5352 5351 5350 5348 5347 5345 5344 5343 5342 5340 5339 5337 5334 5332 5329 5325 5322 5320 5318 5317 5316 5316 5317 5318 5320 5322 5324 5327 5329 5331 5334 5337 5341 5346 5352 5360 5369 5375 5379 5384 5393 5404 5415 5423 5429 5437 5441 5441
5355 5353 5350 5348 5347 5345 5343 5342 5340 5338 5336 5335 5333 5332 5330 5328 5326 5323 5321 5317 5313 5310 5307 5305 5303 5302 5302 5304 5305 5307 5310 5312 5314 5316 5319 5322 5326 5331 5336 5342 5351 5359 5364 5370 5377 5385 5396 5406 5412 5419 5423 5425
5350 5347 5345 5342 5341 5338 5336 5334 5332 5330 5329 5328 5326 5323 5322 5319 5316 5314 5312 5309 5304 5300 5297 5293 5291 5289 5289 5289 5290 5292 5295 5297 5299 5301 5304 5307 5311 5315 5320 5326 5333 5342 5349 5355 5361 5365 5373 5386 5393 5399 5402 5409
5345 5341 5339 5336 5334 5331 5329 5327 5324 5323 5322 5320 5318 5316 5314 5311 5308 5305 5302 5300 5296 5292 5288 5284 5281 5277 5276 5276 5277 5278 5280 5282 5284 5286 5289 5292 5296 5300 5305 5311 5317 5325 5332 5339 5346 5350 5355 5364 5370 5378 5384 5392
5340 5336 5333 5330 5327 5324 5321 5320 5318 5316 5314 5312 5310 5308 5305 5303 5300 5297 5294 5291 5288 5284 5280 5276 5271 5268 5265 5264 5264 5265 5267 5269 5270 5272 5275 5277 5281 5285 5290 5296 5302 5309 5316 5322 5330 5336 5342 5349 5354 5360 5368 5374